Weather History for Phoenix, AZ

Change the Weather History Date:

Monday, November 19, 2012

  Actual Average Record
Temperature  
Mean Temperature 68 °F 62 °F  
Max Temperature 80 °F 74 °F 88 °F (1897)
Min Temperature 56 °F 51 °F 30 °F (1921)
Degree Days  
Heating Degree Days 0 4  
Month to date heating degree days 27 38  
Since 1 July heating degree days 27 44  
Cooling Degree Days 3 1  
Month to date cooling degree days 96 63  
Year to date cooling degree days 5024 4599  
Growing Degree Days 18 (Base 50)    
Moisture  
Dew Point 39 °F    
Average Humidity 37    
Maximum Humidity 55    
Minimum Humidity 19    
Precipitation  
Precipitation 0.00 in 0.02 in 0.65 in (1900)
Month to date precipitation 0.05 0.36  
Year to date precipitation 3.41 6.86  
Snow  
Snow 0.00 in - - ()
Month to date snowfall 0.0  
Year to date snowfall 0.0  
Since 1 July snowfall 0.0  
Snow Depth 0.00 in    
Sea Level Pressure  
Sea Level Pressure 30.11 in    
Wind  
Wind Speed 3 mph (ESE)    
Max Wind Speed 10 mph    
Max Gust Speed 15 mph    
Visibility 10 miles    
Events      
T = Trace of Precipitation, MM = Missing Value Source: NWS Daily Summary

Daily Weather History Graph

Daily Weather History Graph

Search for Another Location

Airport:

Trip Planner

Search our weather history database for the weather conditions in past years. The results will help you decide how hot, cold, wet, or windy it might be!

Date:

Astronomy

Nov. 19, 2012 Rise Set
Actual Time 7:03 AM MST 5:23 PM MST
Civil Twilight 6:37 AM MST 5:49 PM MST
Nautical Twilight 6:06 AM MST 6:19 PM MST
Astronomical Twilight 5:37 AM MST 6:49 PM MST
Moon 12:15 PM MST (11/19) 11:46 PM MST (11/19)
Length of Visible Light 11h 12m
Length of Day
10h 19m
Waxing Crescent, 41% of the Moon is Illuminated
Nov 19
Waxing Crescent
Nov 20
First Quarter
Nov 28
Full
Dec 6
Last Quarter
Dec 13
New

Hourly Weather History & Observations

Time (MST) Temp. Dew Point Humidity Pressure Visibility Wind Dir Wind Speed Gust Speed Precip Events Conditions
12:51 AM 62.1 °F 43.0 °F 50% 30.07 in 10.0 mi ESE 3.5 mph - N/A   Scattered Clouds
1:51 AM 59.0 °F 42.1 °F 53% 30.08 in 10.0 mi Calm Calm - N/A   Scattered Clouds
2:51 AM 57.2 °F 41.0 °F 55% 30.11 in 10.0 mi Calm Calm - N/A   Partly Cloudy
3:51 AM 57.0 °F 41.0 °F 55% 30.09 in 10.0 mi Calm Calm - N/A   Clear
4:51 AM 57.0 °F 41.0 °F 55% 30.09 in 10.0 mi Calm Calm - N/A   Clear
5:51 AM 57.9 °F 39.9 °F 51% 30.10 in 10.0 mi NNE 3.5 mph - N/A   Partly Cloudy
6:51 AM 55.9 °F 39.9 °F 55% 30.13 in 10.0 mi ENE 3.5 mph - N/A   Scattered Clouds
7:51 AM 57.0 °F 39.9 °F 53% 30.15 in 10.0 mi East 3.5 mph - N/A   Scattered Clouds
8:51 AM 62.1 °F 39.9 °F 44% 30.17 in 10.0 mi East 4.6 mph - N/A   Scattered Clouds
9:51 AM 66.0 °F 39.9 °F 38% 30.18 in 10.0 mi Calm Calm - N/A   Partly Cloudy
10:51 AM 73.0 °F 39.9 °F 30% 30.17 in 10.0 mi East 8.1 mph - N/A   Partly Cloudy
11:51 AM 75.9 °F 39.9 °F 27% 30.15 in 10.0 mi ESE 6.9 mph - N/A   Partly Cloudy
12:51 PM 75.9 °F 39.9 °F 27% 30.12 in 10.0 mi Calm Calm - N/A   Partly Cloudy
1:51 PM 79.0 °F 39.0 °F 24% 30.10 in 10.0 mi NNE 3.5 mph - N/A   Partly Cloudy
2:51 PM 79.0 °F 39.0 °F 24% 30.08 in 10.0 mi Calm Calm - N/A   Partly Cloudy
3:51 PM 79.0 °F 35.1 °F 20% 30.07 in 10.0 mi Variable 3.5 mph - N/A   Partly Cloudy
4:51 PM 78.1 °F 32.0 °F 19% 30.08 in 10.0 mi Calm Calm - N/A   Partly Cloudy
5:51 PM 73.9 °F 35.1 °F 24% 30.08 in 10.0 mi SSW 3.5 mph - N/A   Partly Cloudy
6:51 PM 71.6 °F 35.6 °F 27% 30.13 in 10.0 mi SW 4.6 mph - N/A   Clear
7:51 PM 73.0 °F 39.0 °F 29% 30.10 in 10.0 mi WNW 3.5 mph - N/A   Clear
8:51 PM 70.0 °F 39.9 °F 33% 30.12 in 10.0 mi WNW 3.5 mph - N/A   Clear
9:51 PM 64.9 °F 39.0 °F 39% 30.12 in 10.0 mi Calm Calm - N/A   Clear
10:51 PM 62.1 °F 39.0 °F 43% 30.11 in 10.0 mi SSW 3.5 mph - N/A   Clear
11:51 PM 63.0 °F 41.0 °F 45% 30.10 in 10.0 mi ESE 3.5 mph - N/A   Clear